Time,TemperatureF,DewpointF,PressureIn,WindDirection,WindDirectionDegrees,WindSpeedMPH,WindSpeedGustMPH,Humidity,HourlyPrecipIn,Conditions,Clouds,dailyrainin,SoftwareType,DateUTC
2013-04-17 00:13:00,43.6,36.0,30.22,NE,38,4.0,10.0,74,0.00,,,0.00,weatherlink.com 1.10,2013-04-17 05:13:00,
2013-04-17 00:28:00,43.6,36.0,30.23,NE,35,12.0,12.0,74,0.00,,,0.00,weatherlink.com 1.10,2013-04-17 05:28:00,
2013-04-17 00:43:00,43.7,36.0,30.23,NE,45,8.0,17.0,73,0.00,,,0.00,weatherlink.com 1.10,2013-04-17 05:43:00,
2013-04-17 00:58:00,43.8,36.0,30.23,ENE,58,4.0,15.0,73,0.00,,,0.00,weatherlink.com 1.10,2013-04-17 05:58:00,
2013-04-17 01:13:00,43.8,36.0,30.23,ENE,60,9.0,11.0,73,0.00,,,0.00,weatherlink.com 1.10,2013-04-17 06:13:00,
2013-04-17 01:28:00,43.8,35.0,30.24,NE,53,4.0,12.0,71,0.00,,,0.00,weatherlink.com 1.10,2013-04-17 06:28:00,
2013-04-17 01:43:00,44.0,35.0,30.24,NE,54,5.0,10.0,72,0.00,,,0.00,weatherlink.com 1.10,2013-04-17 06:43:00,
2013-04-17 01:58:00,44.0,35.0,30.24,NNE,29,9.0,16.0,70,0.00,,,0.00,weatherlink.com 1.10,2013-04-17 06:58:00,
2013-04-17 02:13:00,43.8,35.0,30.23,ENE,64,6.0,11.0,70,0.00,,,0.00,weatherlink.com 1.10,2013-04-17 07:13:00,
2013-04-17 02:28:00,43.8,34.0,30.24,NE,43,8.0,15.0,69,0.00,,,0.00,weatherlink.com 1.10,2013-04-17 07:28:00,
2013-04-17 02:43:00,43.6,35.0,30.23,NNE,32,7.0,15.0,71,0.00,,,0.00,weatherlink.com 1.10,2013-04-17 07:43:00,
2013-04-17 02:58:00,43.4,35.0,30.23,NE,43,10.0,15.0,72,0.00,,,0.00,weatherlink.com 1.10,2013-04-17 07:58:00,
2013-04-17 03:13:00,43.2,35.0,30.21,NE,53,7.0,15.0,73,0.00,,,0.00,weatherlink.com 1.10,2013-04-17 08:13:00,
2013-04-17 03:28:00,42.8,35.0,30.22,NE,52,6.0,13.0,74,0.00,,,0.00,weatherlink.com 1.10,2013-04-17 08:28:00,
2013-04-17 03:43:00,42.9,36.0,30.23,NE,53,8.0,10.0,75,0.00,,,0.00,weatherlink.com 1.10,2013-04-17 08:43:00,
2013-04-17 03:58:00,43.0,36.0,30.23,ENE,63,8.0,12.0,75,0.00,,,0.00,weatherlink.com 1.10,2013-04-17 08:58:00,
2013-04-17 04:13:00,42.9,36.0,30.22,ENE,72,6.0,13.0,76,0.00,,,0.00,weatherlink.com 1.10,2013-04-17 09:13:00,
2013-04-17 04:28:00,42.9,36.0,30.21,East,80,7.0,13.0,77,0.00,,,0.00,weatherlink.com 1.10,2013-04-17 09:28:00,
2013-04-17 04:43:00,42.9,36.0,30.20,East,79,3.0,11.0,77,0.00,,,0.00,weatherlink.com 1.10,2013-04-17 09:43:00,
2013-04-17 04:58:00,42.9,36.0,30.20,ENE,68,9.0,13.0,78,0.00,,,0.00,weatherlink.com 1.10,2013-04-17 09:58:00,
2013-04-17 05:13:00,42.9,36.0,30.20,NE,48,5.0,15.0,78,0.00,,,0.00,weatherlink.com 1.10,2013-04-17 10:13:00,
2013-04-17 05:28:00,43.0,37.0,30.19,NE,47,9.0,10.0,78,0.00,,,0.00,weatherlink.com 1.10,2013-04-17 10:28:00,
2013-04-17 05:43:00,42.9,36.0,30.18,NE,34,5.0,12.0,78,0.00,,,0.00,weatherlink.com 1.10,2013-04-17 10:43:00,
2013-04-17 05:58:00,42.8,37.0,30.18,NE,50,5.0,12.0,79,0.00,,,0.00,weatherlink.com 1.10,2013-04-17 10:58:00,
2013-04-17 06:13:00,42.9,37.0,30.18,ENE,72,3.0,10.0,79,0.00,,,0.00,weatherlink.com 1.10,2013-04-17 11:13:00,
2013-04-17 06:28:00,43.2,37.0,30.19,NE,49,4.0,9.0,80,0.00,,,0.00,weatherlink.com 1.10,2013-04-17 11:28:00,
2013-04-17 06:43:00,43.5,37.0,30.19,ENE,66,4.0,12.0,79,0.00,,,0.00,weatherlink.com 1.10,2013-04-17 11:43:00,
2013-04-17 06:58:00,43.8,37.0,30.18,ENE,57,2.0,12.0,78,0.00,,,0.00,weatherlink.com 1.10,2013-04-17 11:58:00,
2013-04-17 07:13:00,44.2,38.0,30.19,ENE,75,4.0,8.0,78,0.00,,,0.00,weatherlink.com 1.10,2013-04-17 12:13:00,
2013-04-17 07:28:00,44.7,38.0,30.18,NE,55,2.0,9.0,78,0.00,,,0.00,weatherlink.com 1.10,2013-04-17 12:28:00,
2013-04-17 07:43:00,44.8,39.0,30.18,NE,41,2.0,10.0,79,0.00,,,0.00,weatherlink.com 1.10,2013-04-17 12:43:00,
2013-04-17 07:58:00,44.9,39.0,30.17,ENE,64,7.0,10.0,79,0.00,,,0.00,weatherlink.com 1.10,2013-04-17 12:58:00,
2013-04-17 08:13:00,45.4,39.0,30.16,ENE,61,7.0,11.0,79,0.00,,,0.00,weatherlink.com 1.10,2013-04-17 13:13:00,
2013-04-17 08:28:00,46.0,40.0,30.19,NNE,13,8.0,13.0,78,0.01,,,0.01,weatherlink.com 1.10,2013-04-17 13:28:00,
2013-04-17 08:43:00,46.3,40.0,30.18,ENE,59,5.0,10.0,78,0.01,,,0.01,weatherlink.com 1.10,2013-04-17 13:43:00,
2013-04-17 08:58:00,45.9,40.0,30.17,ENE,72,2.0,11.0,80,0.01,,,0.01,weatherlink.com 1.10,2013-04-17 13:58:00,
2013-04-17 09:13:00,46.0,41.0,30.16,NE,51,9.0,13.0,82,0.01,,,0.01,weatherlink.com 1.10,2013-04-17 14:13:00,
2013-04-17 09:28:00,46.2,41.0,30.15,NE,38,8.0,13.0,81,0.00,,,0.01,weatherlink.com 1.10,2013-04-17 14:28:00,
2013-04-17 09:44:00,46.3,41.0,30.13,ENE,59,5.0,13.0,81,0.00,,,0.01,weatherlink.com 1.10,2013-04-17 14:44:00,
2013-04-17 09:58:00,46.6,41.0,30.13,NNE,20,13.0,15.0,81,0.00,,,0.01,weatherlink.com 1.10,2013-04-17 14:58:00,
2013-04-17 10:14:00,46.8,41.0,30.13,NE,51,4.0,15.0,80,0.00,,,0.01,weatherlink.com 1.10,2013-04-17 15:14:00,
2013-04-17 10:29:00,46.9,41.0,30.13,ENE,65,6.0,14.0,79,0.00,,,0.01,weatherlink.com 1.10,2013-04-17 15:29:00,
2013-04-17 10:44:00,46.9,41.0,30.12,ESE,104,7.0,17.0,80,0.00,,,0.01,weatherlink.com 1.10,2013-04-17 15:44:00,
2013-04-17 10:59:00,47.1,42.0,30.10,ESE,102,17.0,21.0,81,0.00,,,0.01,weatherlink.com 1.10,2013-04-17 15:59:00,
2013-04-17 11:14:00,47.4,42.0,30.09,ENE,58,12.0,18.0,81,0.00,,,0.01,weatherlink.com 1.10,2013-04-17 16:14:00,
2013-04-17 11:29:00,48.3,43.0,30.09,East,79,4.0,13.0,81,0.00,,,0.01,weatherlink.com 1.10,2013-04-17 16:29:00,
2013-04-17 11:44:00,48.8,44.0,30.09,ENE,76,8.0,18.0,82,0.00,,,0.01,weatherlink.com 1.10,2013-04-17 16:44:00,
2013-04-17 11:59:00,49.0,44.0,30.07,East,93,7.0,17.0,83,0.00,,,0.01,weatherlink.com 1.10,2013-04-17 16:59:00,
2013-04-17 12:14:00,49.2,45.0,30.05,East,84,6.0,16.0,84,0.00,,,0.01,weatherlink.com 1.10,2013-04-17 17:14:00,
2013-04-17 12:29:00,50.2,45.0,30.04,ESE,104,10.0,16.0,83,0.00,,,0.01,weatherlink.com 1.10,2013-04-17 17:29:00,
2013-04-17 12:44:00,51.0,46.0,30.03,East,84,5.0,13.0,82,0.00,,,0.01,weatherlink.com 1.10,2013-04-17 17:44:00,
2013-04-17 12:59:00,51.0,46.0,30.03,East,82,5.0,13.0,83,0.00,,,0.01,weatherlink.com 1.10,2013-04-17 17:59:00,
2013-04-17 13:14:00,51.1,46.0,30.03,SE,134,6.0,12.0,84,0.00,,,0.01,weatherlink.com 1.10,2013-04-17 18:14:00,
2013-04-17 13:29:00,51.2,47.0,30.03,East,80,1.0,13.0,85,0.00,,,0.01,weatherlink.com 1.10,2013-04-17 18:29:00,
2013-04-17 13:44:00,51.8,48.0,30.02,SE,142,1.0,13.0,85,0.00,,,0.01,weatherlink.com 1.10,2013-04-17 18:44:00,
2013-04-17 13:59:00,52.3,48.0,30.00,East,84,4.0,11.0,84,0.00,,,0.01,weatherlink.com 1.10,2013-04-17 18:59:00,
2013-04-17 14:14:00,52.1,48.0,29.99,ENE,70,5.0,12.0,85,0.00,,,0.01,weatherlink.com 1.10,2013-04-17 19:14:00,
2013-04-17 14:29:00,52.1,48.0,29.98,East,80,1.0,15.0,86,0.00,,,0.01,weatherlink.com 1.10,2013-04-17 19:29:00,
2013-04-17 14:44:00,52.3,49.0,29.96,East,91,1.0,13.0,88,0.00,,,0.01,weatherlink.com 1.10,2013-04-17 19:44:00,
2013-04-17 14:59:00,52.4,49.0,29.94,ESE,105,8.0,14.0,89,0.00,,,0.01,weatherlink.com 1.10,2013-04-17 19:59:00,
2013-04-17 15:14:00,52.4,50.0,29.92,SE,125,5.0,14.0,90,0.00,,,0.01,weatherlink.com 1.10,2013-04-17 20:14:00,
2013-04-17 15:29:00,49.2,46.0,30.00,ENE,57,7.0,31.0,88,0.00,,,0.01,weatherlink.com 1.10,2013-04-17 20:29:00,
2013-04-17 15:44:00,45.9,44.0,30.01,NNE,13,10.0,19.0,93,0.29,,,0.30,weatherlink.com 1.10,2013-04-17 20:44:00,
2013-04-17 15:59:00,45.5,44.0,30.00,North,359,16.0,18.0,95,0.50,,,0.51,weatherlink.com 1.10,2013-04-17 20:59:00,
2013-04-17 16:14:00,45.5,45.0,30.00,NNE,23,15.0,19.0,96,0.50,,,0.51,weatherlink.com 1.10,2013-04-17 21:14:00,
2013-04-17 16:29:00,45.7,45.0,30.02,NNW,348,9.0,16.0,96,0.50,,,0.51,weatherlink.com 1.10,2013-04-17 21:29:00,
2013-04-17 16:44:00,45.1,44.0,30.04,North,4,18.0,25.0,95,0.20,,,0.51,weatherlink.com 1.10,2013-04-17 21:44:00,
2013-04-17 16:59:00,44.7,43.0,30.06,North,3,20.0,23.0,95,0.00,,,0.51,weatherlink.com 1.10,2013-04-17 21:59:00,
2013-04-17 17:14:00,45.0,44.0,30.00,NE,45,8.0,22.0,95,0.03,,,0.54,weatherlink.com 1.10,2013-04-17 22:14:00,
2013-04-17 17:30:00,45.4,44.0,30.00,ENE,78,6.0,14.0,96,0.07,,,0.58,weatherlink.com 1.10,2013-04-17 22:30:00,
2013-04-17 17:45:00,45.5,45.0,29.97,East,87,5.0,14.0,96,0.09,,,0.60,weatherlink.com 1.10,2013-04-17 22:45:00,
2013-04-17 18:00:00,45.6,45.0,29.94,ENE,57,6.0,17.0,96,0.09,,,0.60,weatherlink.com 1.10,2013-04-17 23:00:00,
2013-04-17 18:15:00,46.0,45.0,29.95,ENE,69,6.0,14.0,96,0.07,,,0.61,weatherlink.com 1.10,2013-04-17 23:15:00,
2013-04-17 18:30:00,46.3,45.0,29.93,ENE,73,12.0,15.0,96,0.03,,,0.61,weatherlink.com 1.10,2013-04-17 23:30:00,
2013-04-17 18:45:00,46.4,45.0,29.92,East,89,5.0,10.0,96,0.01,,,0.61,weatherlink.com 1.10,2013-04-17 23:45:00,
2013-04-17 19:00:00,46.5,46.0,29.93,ENE,76,9.0,9.0,96,0.01,,,0.61,weatherlink.com 1.10,2013-04-18 00:00:00,
2013-04-17 19:15:00,46.7,46.0,29.89,ESE,104,9.0,10.0,96,0.01,,,0.62,weatherlink.com 1.10,2013-04-18 00:15:00,
2013-04-17 19:30:00,47.1,46.0,29.91,NE,54,7.0,8.0,97,0.03,,,0.64,weatherlink.com 1.10,2013-04-18 00:30:00,
2013-04-17 19:45:00,47.3,47.0,29.86,ESE,120,6.0,15.0,97,0.05,,,0.66,weatherlink.com 1.10,2013-04-18 00:45:00,
2013-04-17 20:00:00,47.7,47.0,29.88,ENE,58,3.0,13.0,97,0.05,,,0.66,weatherlink.com 1.10,2013-04-18 01:00:00,
2013-04-17 20:15:00,48.1,47.0,29.91,NW,319,2.0,9.0,97,0.04,,,0.66,weatherlink.com 1.10,2013-04-18 01:15:00,
2013-04-17 20:44:00,48.2,47.0,29.86,East,86,2.0,11.0,96,0.00,,,0.66,weatherlink.com 1.10,2013-04-18 01:44:00,
2013-04-17 21:00:00,48.5,48.0,29.88,SSE,151,3.0,6.0,96,0.01,,,0.67,weatherlink.com 1.10,2013-04-18 02:00:00,
2013-04-17 21:15:00,48.9,48.0,29.86,ESE,107,1.0,6.0,97,0.02,,,0.68,weatherlink.com 1.10,2013-04-18 02:15:00,
2013-04-17 21:30:00,49.2,48.0,29.86,ESE,113,5.0,10.0,97,0.02,,,0.68,weatherlink.com 1.10,2013-04-18 02:30:00,
2013-04-17 21:45:00,49.4,49.0,29.87,SE,133,0.0,11.0,97,0.02,,,0.68,weatherlink.com 1.10,2013-04-18 02:45:00,
2013-04-17 22:00:00,49.8,49.0,29.86,SE,132,1.0,7.0,97,0.07,,,0.74,weatherlink.com 1.10,2013-04-18 03:00:00,
2013-04-17 22:15:00,50.3,50.0,29.83,East,86,4.0,10.0,97,0.07,,,0.75,weatherlink.com 1.10,2013-04-18 03:15:00,
2013-04-17 22:30:00,50.9,50.0,29.81,ENE,74,4.0,11.0,98,0.07,,,0.75,weatherlink.com 1.10,2013-04-18 03:30:00,
2013-04-17 22:45:00,51.3,51.0,29.81,East,89,3.0,10.0,97,0.07,,,0.75,weatherlink.com 1.10,2013-04-18 03:45:00,
2013-04-17 23:00:00,51.7,51.0,29.82,NE,41,3.0,8.0,98,0.01,,,0.75,weatherlink.com 1.10,2013-04-18 04:00:00,
2013-04-17 23:15:00,52.3,52.0,29.80,NE,42,5.0,8.0,98,0.08,,,0.83,weatherlink.com 1.10,2013-04-18 04:15:00,
2013-04-17 23:30:00,53.0,53.0,29.81,SSE,165,3.0,10.0,98,0.28,,,1.03,weatherlink.com 1.10,2013-04-18 04:30:00,
2013-04-17 23:45:00,53.6,53.0,29.79,SE,140,3.0,11.0,98,0.57,,,1.32,weatherlink.com 1.10,2013-04-18 04:45:00,